カタログに戻る

CHONGZHOU

運用中科学SSO
NORAD 63989·PAYLOAD·🇨🇳 China
この衛星名は、まだ公式ソースで確認されていません。

打ち上げ May 14, 2025 から Jiuquan Satellite Launch Center

Loading…

次のパス (今後24時間)

TLE

最新Source: Space-Track

元期: Sep 14, 2026, 23:17 UTC

1 63989U 25100H   26257.97043677  .00038171  00000-0  93685-3 0  9992
2 63989  97.3608 334.7973 0005514 323.7217  36.3655 15.40579558 74666

AllMySatでCHONGZHOUをリアルタイム追跡

Download on the App Store